DSP F2

operational
NORAD ID: 5204 Int'l Des: 1971-039 Owner: SAMSO Country: US
HEOCIRCULAR

Über DSP F2

Beschreibung wird geladen...

Live-Position

3D-Globus wird geladen...

Nächste Überflüge

Höhenverlauf

Altitude vs Time

uPlot chart will show altitude changes over time

Zweizeiliger Elementsatz

1 05204U 71039A 26062.54174028 -.00000182 00000-0 00000-0 0 9990
2 05204 0.2329 357.4177 0024157 295.0934 198.0407 0.98162083205197
Epoch: 3. März 2026 • Age: 38 hours

Aktueller Status

Höhe 36485.8 km
Geschwindigkeit 3.05 km/s
Subsatellitenpunkt 0.16°N, 126.38°E
Typ military

Große Konstellationen

Loading constellations...